1504245600.77,20333,23.38,74284.0,17.07,-15.85,-16.27,0,*46
1504245601.97,20334,23.38,74286.0,17.07,-15.99,-16.41,0,*4C
1504245603.2,20335,23.38,74286.8,17.07,-16.27,-16.75,0,*4C
1504245604.43,20336,23.38,74282.8,17.07,-16.75,-17.17,0,*4D
1504245605.68,20337,23.38,74280.8,17.05,-17.17,-17.69,0,*42
1504245606.88,20338,23.38,74284.5,17.07,-16.83,-17.31,0,*4E
1504245608.14,20339,23.38,74286.8,17.07,-17.03,-17.59,0,*48
1504245609.41,20340,23.38,74286.8,17.05,-16.27,-16.65,0,*4D
1504245610.65,20341,23.38,74286.8,17.07,-16.13,-16.59,0,*46
1504245611.85,20342,23.38,74286.5,17.07,-15.95,-16.37,0,*40
1504245613.09,20343,23.38,74286.0,17.07,-16.23,-16.69,0,*44
1504245614.33,20344,23.38,74286.5,17.07,-16.09,-16.55,0,*44
1504245615.56,20345,23.38,74282.8,17.07,-16.27,-16.59,0,*45
1504245616.81,20346,23.38,74284.0,17.07,-16.23,-16.69,0,*41
1504245618.0,20347,23.38,74286.0,17.07,-15.95,-16.45,0,*40
1504245619.23,20348,23.38,74284.3,17.07,-16.23,-16.59,0,*4C
1504245620.46,20349,23.38,74284.0,17.07,-16.55,-17.11,0,*41
1504245621.66,20350,23.38,74282.5,17.07,-16.97,-17.49,0,*4A
1504245622.94,20351,23.38,74284.0,17.11,-16.23,-16.69,0,*40
1504245624.17,20352,23.38,74286.5,17.09,-15.75,-16.31,0,*47
1504245625.43,20353,23.31,74280.0,17.09,-16.17,-16.65,0,*40
1504245626.71,20354,23.38,74286.8,17.11,-15.81,-16.31,0,*43
1504245627.94,20355,23.38,74282.0,17.11,-16.03,-16.41,0,*4C
1504245629.22,20356,23.38,74282.5,17.11,-16.23,-16.69,0,*47
1504245630.46,20357,23.38,74286.0,17.11,-16.41,-16.83,0,*46
1504245631.69,20358,23.38,74280.8,17.11,-15.95,-16.37,0,*4C
1504245632.97,20359,23.38,74286.5,17.11,-16.09,-16.65,0,*4C
1504245634.2,20360,23.31,74280.8,17.11,-16.79,-17.31,0,*41
1504245635.49,20361,23.38,74286.0,17.11,-16.69,-17.11,0,*43
1504245636.77,20362,23.38,74284.8,17.11,-16.65,-17.11,0,*4C
1504245637.98,20363,23.38,74282.5,17.09,-16.41,-16.93,0,*49
1504245639.26,20364,23.38,74284.5,17.11,-16.17,-16.65,0,*4D
1504245640.52,20365,23.38,74284.3,17.11,-15.67,-16.31,0,*49
1504245641.75,20366,23.38,74286.8,17.13,-16.31,-16.75,0,*48
1504245643.0,20367,23.38,74286.8,17.13,-16.17,-16.65,0,*4C
1504245644.27,20368,23.38,74288.0,17.15,-16.59,-17.11,0,*4D
1504245645.5,20369,23.38,74284.8,17.13,-16.75,-17.21,0,*47
1504245646.76,20370,23.38,74284.3,17.15,-16.23,-16.83,0,*43
1504245647.99,20371,23.38,74284.3,17.13,-15.67,-16.13,0,*4E
1504245649.24,20372,23.38,74284.0,17.15,-15.57,-15.99,0,*49
1504245650.5,20373,23.38,74286.5,17.15,-16.23,-16.59,0,*47
1504245651.76,20374,23.38,74288.3,17.15,-16.09,-16.45,0,*45
1504245653.01,20375,23.38,74284.3,17.15,-16.27,-16.89,0,*48
1504245654.3,20376,23.38,74284.3,17.15,-16.69,-17.03,0,*42
1504245655.56,20377,23.38,74286.8,17.15,-16.83,-17.45,0,*45
1504245656.81,20378,23.38,74286.5,17.15,-16.75,-17.17,0,*44
1504245658.07,20379,23.31,74280.3,17.15,-16.31,-16.75,0,*40
1504245659.34,20380,23.38,74286.5,17.15,-16.13,-16.59,0,*48
1504245660.6,20381,23.38,74284.5,17.15,-16.27,-16.75,0,*40
1504245661.83,20382,23.38,74282.5,17.17,-16.27,-16.75,0,*41
1504245663.05,20383,23.38,74284.5,17.17,-16.27,-16.89,0,*43
1504245664.26,20384,23.38,74284.8,17.17,-16.31,-16.89,0,*43
1504245665.49,20385,23.31,74280.0,17.17,-16.27,-16.83,0,*4F
1504245666.72,20386,23.38,74286.0,17.17,-16.09,-16.55,0,*4B
1504245667.95,20387,23.38,74286.0,17.17,-16.55,-17.03,0,*41
1504245669.14,20388,23.38,74282.0,17.17,-15.99,-16.45,0,*4E
1504245670.39,20389,23.38,74286.3,17.19,-15.95,-16.27,0,*49
1504245671.62,20390,23.31,74282.3,17.21,-15.89,-16.37,0,*46
1504245672.84,20391,23.38,74286.0,17.19,-15.95,-16.37,0,*41
1504245674.13,20392,23.38,74286.5,17.19,-16.51,-17.07,0,*4B
1504245675.38,20393,23.38,74284.8,17.21,-15.89,-16.31,0,*43
1504245676.58,20394,23.38,74282.0,17.17,-16.37,-16.93,0,*4F
1504245677.81,20395,23.31,74282.0,17.19,-16.41,-16.97,0,*45
1504245679.07,20396,23.38,74284.0,17.21,-15.85,-16.23,0,*49
1504245680.31,20397,23.38,74286.3,17.23,-15.99,-16.51,0,*42
1504245681.5,20398,23.38,74284.5,17.21,-15.99,-16.45,0,*4A
1504245682.73,20399,23.38,74284.5,17.21,-15.89,-16.37,0,*4F
1504245683.98,20400,23.38,74286.3,17.23,-16.23,-16.79,0,*43
1504245685.22,20401,23.38,74286.3,17.21,-16.23,-16.79,0,*40
1504245686.47,20402,23.38,74286.8,17.23,-16.23,-16.79,0,*41
1504245687.7,20403,23.38,74288.0,17.21,-16.23,-16.79,0,*42
1504245688.95,20404,23.31,74284.8,17.23,-16.03,-16.51,0,*4F
1504245690.19,20405,23.38,74286.8,17.23,-16.75,-17.35,0,*4C
1504245691.41,20406,23.38,74284.8,17.23,-16.45,-16.93,0,*41
1504245692.67,20407,23.31,74284.5,17.21,-15.89,-16.31,0,*49
1504245693.93,20408,23.31,74286.0,17.23,-15.75,-16.17,0,*43
1504245695.19,20409,23.31,74282.8,17.23,-16.59,-17.03,0,*4B
1504245696.44,20410,23.31,74284.0,17.23,-16.59,-17.03,0,*43
1504245697.71,20411,23.38,74284.5,17.27,-16.13,-16.75,0,*48
1504245698.94,20412,23.38,74284.3,17.27,-16.83,-17.35,0,*47
1504245700.2,20413,23.38,74286.3,17.23,-16.59,-17.03,0,*40
1504245701.46,20414,23.31,74280.8,17.23,-16.17,-16.75,0,*4D
1504245702.69,20415,23.38,74286.3,17.23,-16.45,-16.89,0,*48
1504245703.91,20416,23.38,74284.0,17.23,-16.59,-16.93,0,*4D
1504245705.19,20417,23.31,74286.3,17.23,-16.23,-16.65,0,*48
1504245706.47,20418,23.31,74284.3,17.23,-16.17,-16.65,0,*40
1504245707.73,20419,23.31,74286.8,17.23,-16.17,-16.59,0,*4E
1504245708.99,20420,23.38,74284.5,17.27,-16.09,-16.55,0,*43
1504245710.22,20421,23.38,74288.0,17.29,-16.69,-17.31,0,*49
1504245711.47,20422,23.38,74284.3,17.29,-16.69,-17.17,0,*4E
1504245712.7,20423,23.31,74286.0,17.27,-16.89,-17.49,0,*44
1504245713.93,20424,23.31,74284.0,17.27,-16.83,-17.31,0,*46
1504245715.18,20425,23.38,74286.8,17.27,-16.27,-16.75,0,*48
1504245716.46,20426,23.38,74284.5,17.27,-16.27,-16.69,0,*46
1504245717.71,20427,23.38,74284.5,17.27,-15.95,-16.31,0,*40
1504245718.97,20428,23.31,74284.5,17.27,-16.31,-16.75,0,*42
1504245720.2,20429,23.31,74284.5,17.29,-16.51,-16.83,0,*42
1504245721.45,20430,23.31,74284.8,17.29,-16.23,-16.69,0,*4B
1504245722.71,20431,23.38,74286.3,17.29,-16.17,-16.69,0,*4D
1504245723.94,20432,23.31,74284.0,17.29,-16.97,-17.59,0,*44
1504245725.2,20433,23.31,74282.5,17.27,-16.31,-16.75,0,*48
1504245726.41,20434,23.38,74284.3,17.27,-15.99,-16.45,0,*4D
1504245727.64,20435,23.38,74286.5,17.29,-16.27,-16.79,0,*4B
1504245728.9,20436,23.31,74282.8,17.27,-16.27,-16.83,0,*43
1504245730.16,20437,23.38,74284.5,17.27,-16.17,-16.75,0,*48
1504245731.36,20438,23.31,74286.3,17.29,-15.95,-16.37,0,*46
1504245732.59,20439,23.38,74284.5,17.29,-16.51,-16.97,0,*46
1504245733.85,20440,23.31,74284.3,17.29,-16.13,-16.65,0,*43
1504245735.08,20441,23.31,74282.8,17.31,-15.95,-16.37,0,*41
1504245736.33,20442,23.31,74280.0,17.31,-16.03,-16.51,0,*4E
1504245737.56,20443,23.31,74282.8,17.31,-16.37,-16.93,0,*46
1504245738.81,20444,23.38,74286.8,17.31,-16.03,-16.51,0,*48
1504245740.07,20445,23.38,74284.3,17.31,-16.27,-16.79,0,*45
1504245741.32,20446,23.38,74284.5,17.31,-16.93,-17.45,0,*47
1504245742.6,20447,23.31,74280.3,17.31,-17.03,-17.55,0,*4F
1504245743.89,20448,23.38,74288.5,17.31,-16.13,-16.65,0,*42
1504245745.12,20449,23.31,74284.0,17.33,-16.09,-16.75,0,*4B
1504245746.38,20450,23.31,74284.8,17.31,-16.27,-16.83,0,*44
1504245747.61,20451,23.38,74284.5,17.31,-15.67,-16.03,0,*4A
1504245748.85,20452,23.31,74284.3,17.33,-16.65,-17.35,0,*4E
1504245750.08,20453,23.31,74282.3,17.33,-16.17,-16.79,0,*43
1504245751.3,20454,23.31,74286.3,17.33,-16.09,-16.45,0,*44
1504245752.52,20455,23.38,74284.3,17.33,-15.99,-16.51,0,*4A
1504245753.71,20456,23.31,74282.5,17.33,-15.99,-16.37,0,*49
1504245754.94,20457,23.31,74284.5,17.33,-16.23,-16.79,0,*40
1504245756.17,20458,23.31,74284.3,17.33,-16.23,-16.79,0,*4F
1504245757.39,20459,23.31,74282.8,17.35,-15.95,-16.45,0,*49
1504245758.67,20460,23.31,74280.0,17.35,-15.81,-16.31,0,*45
1504245759.94,20461,23.31,74280.3,17.35,-15.81,-16.31,0,*44
1504245761.21,20462,23.31,74284.5,17.35,-16.45,-17.07,0,*48
1504245762.47,20463,23.31,74282.5,17.35,-16.27,-16.75,0,*49
1504245763.7,20464,23.31,74284.3,17.35,-16.41,-16.89,0,*4D
1504245764.95,20465,23.31,74284.5,17.37,-15.89,-16.27,0,*4D
1504245766.24,20466,23.31,74280.0,17.35,-15.85,-16.27,0,*40
1504245767.49,20467,23.31,74280.0,17.35,-17.07,-17.73,0,*49
1504245768.74,20468,23.38,74286.0,17.35,-16.93,-17.59,0,*42
1504245770.01,20469,23.31,74280.5,17.35,-16.55,-17.07,0,*42
1504245771.3,20470,23.31,74286.0,17.35,-16.17,-16.69,0,*45
1504245772.53,20471,23.31,74286.0,17.35,-16.41,-16.83,0,*43
1504245773.77,20472,23.31,74284.3,17.35,-15.95,-16.41,0,*44
1504245775.0,20473,23.31,74286.0,17.37,-16.59,-17.07,0,*47
1504245776.27,20474,23.31,74286.0,17.35,-16.13,-16.55,0,*4A
1504245777.5,20475,23.31,74286.0,17.37,-15.89,-16.41,0,*4C
1504245778.7,20476,23.31,74286.8,17.37,-15.53,-15.99,0,*4E
1504245779.93,20477,23.31,74282.5,17.37,-15.67,-16.23,0,*4A
1504245781.18,20478,23.31,74284.0,17.37,-16.27,-16.69,0,*4C
1504245782.39,20479,23.31,74286.5,17.37,-16.37,-16.79,0,*4D
1504245783.59,20480,23.31,74282.8,17.37,-15.63,-15.99,0,*44
1504245784.87,20481,23.31,74282.8,17.39,-15.81,-16.13,0,*46
1504245786.13,20482,23.31,74282.0,17.41,-16.17,-16.65,0,*47
1504245787.33,20483,23.38,74286.3,17.41,-16.45,-16.83,0,*49
1504245788.59,20484,23.31,74282.8,17.39,-17.03,-17.73,0,*4C
1504245789.81,20485,23.31,74282.8,17.41,-16.93,-17.55,0,*4E
1504245791.09,20486,23.38,74286.3,17.39,-17.45,-17.93,0,*42
1504245792.35,20487,23.31,74286.3,17.39,-16.55,-17.11,0,*49
1504245793.61,20488,23.31,74280.8,17.39,-16.55,-17.03,0,*45
1504245794.87,20489,23.31,74284.3,17.39,-16.55,-17.17,0,*41
1504245796.12,20490,23.31,74284.8,17.39,-16.83,-17.45,0,*45
1504245797.38,20491,23.31,74280.0,17.39,-16.27,-16.79,0,*44
1504245798.66,20492,23.31,74280.8,17.39,-16.23,-16.69,0,*42
1504245799.88,20493,23.31,74286.3,17.39,-16.79,-17.31,0,*40
1504245801.17,20494,23.31,74280.8,17.39,-16.09,-16.69,0,*4C
1504245802.39,20495,23.31,74282.8,17.39,-15.95,-16.41,0,*41
1504245803.68,20496,23.31,74284.0,17.39,-16.13,-16.65,0,*49
1504245804.93,20497,23.31,74280.0,17.43,-16.03,-16.51,0,*43
1504245806.16,20498,23.31,74282.5,17.41,-16.17,-16.59,0,*43
1504245807.39,20499,23.31,74286.5,17.41,-16.51,-16.79,0,*42
1504245808.62,20500,23.31,74284.0,17.39,-16.37,-16.89,0,*43
1504245809.9,20501,23.31,74282.5,17.39,-16.23,-16.69,0,*49
1504245811.14,20502,23.31,74286.0,17.41,-16.17,-16.59,0,*41
1504245812.38,20503,23.31,74280.8,17.39,-15.99,-16.51,0,*42
1504245813.61,20504,23.31,74282.5,17.41,-16.31,-16.75,0,*4D
1504245814.87,20505,23.31,74280.0,17.39,-16.13,-16.55,0,*41
1504245816.1,20506,23.31,74280.3,17.41,-15.95,-16.51,0,*44
1504245817.32,20507,23.31,74280.8,17.41,-16.03,-16.51,0,*49
1504245818.58,20508,23.31,74280.8,17.45,-15.85,-16.27,0,*4E
1504245819.81,20509,23.31,74282.5,17.45,-16.17,-16.79,0,*4C
1504245821.09,20510,23.31,74280.8,17.43,-16.23,-16.65,0,*48
1504245822.35,20511,23.31,74282.8,17.43,-16.17,-16.59,0,*41
1504245823.58,20512,23.31,74282.0,17.45,-16.55,-17.17,0,*49
1504245824.82,20513,23.31,74282.8,17.43,-16.45,-16.79,0,*46
1504245826.07,20514,23.31,74282.5,17.43,-16.59,-17.11,0,*43
1504245827.33,20515,23.31,74280.5,17.45,-16.69,-17.17,0,*41
1504245828.59,20516,23.31,74280.3,17.43,-17.25,-17.87,0,*44
1504245829.81,20517,23.31,74282.0,17.43,-16.93,-17.49,0,*4B
1504245831.09,20518,23.31,74284.0,17.43,-17.11,-17.63,0,*47
1504245832.37,20519,23.31,74284.3,17.43,-16.65,-17.25,0,*46
1504245833.63,20520,23.31,74284.8,17.41,-16.65,-17.11,0,*49
1504245834.88,20521,23.31,74282.8,17.39,-16.51,-16.89,0,*40
1504245836.07,20522,23.31,74282.0,17.45,-15.99,-16.45,0,*4F
1504245837.3,20523,23.31,74282.0,17.43,-16.03,-16.59,0,*45
1504245838.55,20524,23.31,74282.3,17.43,-15.95,-16.51,0,*46
1504245839.81,20525,23.31,74280.8,17.45,-15.85,-16.27,0,*41
1504245841.06,20526,23.31,74280.3,17.43,-16.75,-17.21,0,*4F
1504245842.31,20527,23.31,74282.0,17.45,-16.55,-17.07,0,*4E
1504245843.54,20528,23.31,74280.8,17.45,-16.27,-16.79,0,*4C
1504245844.78,20529,23.31,74280.0,17.45,-16.17,-16.59,0,*4C
1504245846.01,20530,23.31,74280.8,17.45,-16.27,-16.59,0,*47
1504245847.22,20531,23.31,74282.5,17.45,-16.41,-16.93,0,*40
1504245848.46,20532,23.31,74284.8,17.49,-16.13,-16.55,0,*42
1504245849.66,20533,23.31,74284.5,17.45,-16.03,-16.55,0,*4E
1504245850.92,20534,23.31,74280.8,17.45,-16.13,-16.69,0,*47
1504245852.16,20535,23.31,74286.8,17.45,-16.17,-16.75,0,*4F
1504245853.36,20536,23.31,74286.0,17.45,-15.99,-16.55,0,*4B
1504245854.6,20537,23.31,74284.0,17.45,-16.55,-17.07,0,*4F
1504245855.81,20538,23.31,74282.5,17.49,-16.75,-17.31,0,*4B
1504245857.04,20539,23.31,74282.0,17.49,-17.25,-17.87,0,*43
1504245858.25,20540,23.31,74282.8,17.45,-16.45,-16.93,0,*42
1504245859.47,20541,23.31,74280.3,17.49,-16.51,-16.97,0,*4E
1504245860.71,20542,23.31,74284.3,17.45,-16.45,-17.03,0,*48
1504245861.97,20543,23.31,74280.8,17.45,-16.13,-16.69,0,*47
1504245863.2,20544,23.31,74282.5,17.49,-16.27,-16.75,0,*46
1504245864.44,20545,23.31,74284.8,17.45,-16.27,-16.75,0,*4B
1504245865.69,20546,23.31,74282.3,17.49,-15.81,-16.23,0,*48
1504245866.95,20547,23.31,74282.5,17.51,-15.63,-16.09,0,*44
1504245868.19,20548,23.31,74280.0,17.51,-15.81,-16.37,0,*4A
1504245869.44,20549,23.31,74284.3,17.51,-15.89,-16.45,0,*46
1504245870.68,20550,23.31,74286.3,17.53,-16.09,-16.59,0,*4A
1504245871.94,20551,23.31,74286.5,17.51,-16.17,-16.59,0,*46
1504245873.21,20552,23.31,74282.3,17.51,-16.23,-16.69,0,*41
1504245874.46,20553,23.31,74280.0,17.51,-15.95,-16.51,0,*45
1504245875.69,20554,23.31,74282.5,17.49,-16.23,-16.75,0,*43
1504245876.94,20555,23.31,74286.5,17.51,-16.97,-17.63,0,*42
1504245878.16,20556,23.31,74282.0,17.51,-16.93,-17.49,0,*4D
1504245879.36,20557,23.31,74280.0,17.53,-16.03,-16.45,0,*4A
1504245880.61,20558,23.31,74280.3,17.53,-16.31,-16.65,0,*46
1504245881.87,20559,23.31,74282.5,17.53,-16.09,-16.65,0,*4C
1504245883.1,20560,23.31,74280.5,17.53,-15.71,-16.23,0,*48
1504245884.33,20561,23.31,74280.0,17.55,-15.99,-16.41,0,*4D
1504245885.58,20562,23.31,74282.0,17.55,-16.27,-16.79,0,*43
1504245886.84,20563,23.31,74280.5,17.55,-16.31,-16.79,0,*45
1504245888.1,20564,23.31,74282.0,17.55,-16.13,-16.55,0,*4C
1504245889.37,20565,23.31,74282.0,17.55,-16.55,-17.07,0,*49
1504245890.65,20566,23.31,74282.5,17.55,-17.07,-17.55,0,*4B
1504245891.88,20567,23.31,74284.8,17.53,-16.97,-17.63,0,*41
1504245893.16,20568,23.31,74284.0,17.55,-17.21,-17.93,0,*4B
1504245894.4,20569,23.31,74280.3,17.53,-17.21,-17.83,0,*4D
1504245895.65,20570,23.31,74280.8,17.55,-16.59,-17.21,0,*45
1504245896.89,20571,23.31,74286.0,17.53,-16.69,-17.35,0,*44
1504245898.16,20572,23.31,74282.8,17.53,-16.51,-17.07,0,*4D
1504245899.36,20573,23.31,74282.3,17.53,-16.93,-17.49,0,*48
1504245900.56,20574,23.31,74280.0,17.53,-16.97,-17.49,0,*4B
1504245901.79,20575,23.31,74282.0,17.53,-16.93,-17.41,0,*46
1504245903.02,20576,23.31,74286.5,17.53,-16.59,-17.11,0,*46
1504245904.22,20577,23.31,74282.0,17.53,-16.03,-16.45,0,*48
1504245905.43,20578,23.31,74284.3,17.53,-16.59,-16.97,0,*47
1504245906.67,20579,23.31,74276.5,17.53,-16.69,-17.35,0,*4C
1504245907.89,20580,23.31,74280.8,17.53,-16.31,-16.83,0,*4B
1504245909.12,20581,23.31,74282.5,17.53,-16.23,-16.83,0,*49
1504245910.35,20582,23.31,74282.3,17.53,-16.31,-16.83,0,*49
1504245911.56,20583,23.31,74276.8,17.53,-16.37,-16.83,0,*4E
1504245912.79,20584,23.31,74280.8,17.55,-16.03,-16.55,0,*43
1504245914.05,20585,23.31,74282.5,17.55,-15.75,-16.27,0,*45
1504245915.28,20586,23.31,74282.5,17.55,-15.99,-16.41,0,*44
1504245916.51,20587,23.31,74278.0,17.55,-16.41,-16.89,0,*47
1504245917.78,20588,23.31,74282.5,17.55,-16.55,-17.07,0,*4A
1504245919.05,20589,23.31,74280.8,17.55,-16.13,-16.59,0,*43
1504245920.29,20590,23.31,74282.3,17.55,-16.75,-17.35,0,*40
1504245921.55,20591,23.31,74280.0,17.55,-16.59,-17.21,0,*4A
1504245922.8,20592,23.31,74282.5,17.55,-16.59,-17.21,0,*49
1504245924.04,20593,23.31,74284.5,17.53,-16.65,-17.49,0,*4F
1504245925.27,20594,23.31,74278.3,17.55,-16.41,-16.93,0,*4E
1504245926.5,20595,23.31,74282.5,17.57,-16.09,-16.41,0,*4E
1504245927.73,20596,23.31,74282.8,17.57,-15.71,-16.27,0,*41
1504245928.96,20597,23.31,74282.5,17.57,-15.85,-16.37,0,*4A
1504245930.21,20598,23.31,74280.5,17.59,-15.71,-16.23,0,*45
1504245931.48,20599,23.31,74282.3,17.59,-16.09,-16.59,0,*45
1504245932.73,20600,23.31,74280.8,17.59,-16.51,-16.97,0,*49
1504245933.94,20601,23.31,74286.8,17.57,-16.55,-16.97,0,*42
1504245935.17,20602,23.31,74282.3,17.57,-16.27,-16.75,0,*48
1504245936.42,20603,23.31,74280.5,17.59,-16.27,-16.89,0,*44
1504245937.67,20604,23.31,74282.5,17.59,-15.99,-16.51,0,*40
1504245938.92,20605,23.31,74280.3,17.59,-16.27,-16.97,0,*4D
1504245940.17,20606,23.31,74282.8,17.59,-17.59,-18.21,0,*45
1504245941.43,20607,23.31,74282.0,17.59,-16.41,-17.11,0,*40
1504245942.68,20608,23.31,74280.0,17.57,-16.51,-17.03,0,*43
1504245943.94,20609,23.31,74280.0,17.59,-16.75,-17.41,0,*4C
1504245945.18,20610,23.31,74284.0,17.57,-16.09,-16.75,0,*47
1504245946.44,20611,23.31,74284.3,17.59,-15.63,-16.09,0,*4C
1504245947.7,20612,23.31,74282.5,17.59,-16.09,-16.59,0,*45
1504245948.93,20613,23.31,74286.0,17.59,-16.41,-16.97,0,*4A
1504245950.21,20614,23.31,74280.0,17.59,-16.27,-17.03,0,*41
1504245951.5,20615,23.31,74282.8,17.59,-16.09,-16.51,0,*4A
1504245952.72,20616,23.31,74282.3,17.59,-15.95,-16.41,0,*4E
1504245953.96,20617,23.31,74282.5,17.59,-16.41,-16.97,0,*4E
1504245955.21,20618,23.31,74280.8,17.61,-16.23,-16.69,0,*4F
1504245956.42,20619,23.31,74280.3,17.61,-15.95,-16.45,0,*4E
1504245957.66,20620,23.31,74282.0,17.63,-15.99,-16.51,0,*4F
1504245958.92,20621,23.31,74280.8,17.63,-16.31,-16.79,0,*45
1504245960.17,20622,23.31,74282.0,17.63,-15.71,-16.31,0,*4D
1504245961.43,20623,23.31,74280.3,17.63,-15.63,-16.17,0,*4B
1504245962.71,20624,23.31,74284.3,17.63,-16.51,-17.21,0,*4A
1504245963.96,20625,23.31,74280.0,17.63,-17.31,-17.93,0,*45
1504245965.25,20626,23.31,74284.3,17.63,-16.51,-17.03,0,*48
1504245966.5,20627,23.31,74280.8,17.63,-16.03,-16.65,0,*4F
1504245967.78,20628,23.31,74286.3,17.63,-16.31,-17.11,0,*43
1504245969.01,20629,23.31,74280.0,17.63,-17.49,-18.07,0,*44
1504245970.3,20630,23.31,74284.5,17.63,-17.07,-17.55,0,*4E
1504245971.51,20631,23.31,74282.5,17.61,-16.79,-17.35,0,*43
1504245972.77,20632,23.31,74280.8,17.63,-16.65,-17.31,0,*4B
1504245974.0,20633,23.31,74282.3,17.61,-16.27,-16.83,0,*46
1504245975.29,20634,23.31,74284.0,17.63,-16.51,-17.21,0,*4B
1504245976.52,20635,23.31,74284.0,17.63,-16.75,-17.31,0,*4D
1504245977.74,20636,23.31,74282.8,17.63,-16.45,-16.93,0,*44
1504245979.0,20637,23.31,74282.5,17.63,-16.59,-17.17,0,*45
1504245980.23,20638,23.31,74280.8,17.61,-16.31,-16.93,0,*4B
1504245981.44,20639,23.31,74282.5,17.63,-15.99,-16.45,0,*42
1504245982.7,20640,23.31,74282.3,17.65,-15.85,-16.27,0,*43
1504245983.92,20641,23.31,74280.3,17.65,-15.99,-16.51,0,*4E
1504245985.18,20642,23.31,74284.0,17.63,-16.45,-17.03,0,*4F
1504245986.43,20643,23.31,74280.3,17.63,-16.03,-16.51,0,*4A
1504245987.65,20644,23.31,74284.8,17.65,-15.99,-16.31,0,*4D
1504245988.88,20645,23.31,74280.5,17.65,-16.03,-16.51,0,*4A
1504245990.11,20646,23.31,74282.5,17.65,-15.89,-16.41,0,*49
1504245991.34,20647,23.31,74280.8,17.65,-15.75,-16.31,0,*4C
1504245992.6,20648,23.31,74284.3,17.67,-16.09,-16.59,0,*47
1504245993.86,20649,23.31,74284.0,17.65,-16.13,-16.65,0,*40
1504245995.09,20650,23.31,74286.5,17.65,-15.71,-16.17,0,*4A
1504245996.34,20651,23.31,74282.3,17.67,-15.71,-16.27,0,*4A
1504245997.59,20652,23.31,74280.5,17.67,-15.67,-16.23,0,*4A
1504245998.79,20653,23.31,74280.0,17.69,-16.37,-16.97,0,*4C
1504246000.04,20654,23.31,74282.5,17.69,-17.11,-17.55,0,*41
1504246001.29,20655,23.31,74282.8,17.67,-16.83,-17.41,0,*41
1504246002.55,20656,23.31,74282.5,17.67,-16.41,-17.03,0,*4A
1504246003.8,20657,23.31,74282.5,17.67,-16.59,-17.17,0,*47
1504246005.07,20658,23.31,74280.5,17.67,-17.03,-17.63,0,*45
1504246006.35,20659,23.31,74280.0,17.67,-17.25,-17.79,0,*4B
1504246007.6,20660,23.31,74286.0,17.67,-16.89,-17.45,0,*49
1504246008.83,20661,23.31,74280.3,17.65,-16.27,-16.79,0,*40
1504246010.08,20662,23.31,74282.3,17.67,-16.45,-17.17,0,*4C
1504246011.33,20663,23.31,74282.5,17.67,-16.45,-17.11,0,*4B
1504246012.59,20664,23.31,74280.0,17.67,-16.13,-16.75,0,*4C
1504246013.84,20665,23.31,74282.8,17.67,-16.59,-17.25,0,*47
1504246015.1,20666,23.31,74282.5,17.65,-16.13,-16.65,0,*4D
1504246016.38,20667,23.31,74286.0,17.67,-16.13,-16.69,0,*42
1504246017.63,20668,23.31,74282.5,17.69,-15.89,-16.31,0,*4E
1504246018.89,20669,23.31,74284.0,17.67,-16.09,-16.75,0,*4A
1504246020.11,20670,23.31,74280.0,17.67,-15.99,-16.41,0,*4F
1504246021.34,20671,23.31,74282.3,17.69,-16.27,-16.75,0,*41
1504246022.6,20672,23.31,74284.0,17.69,-16.65,-17.21,0,*44
1504246023.82,20673,23.31,74282.5,17.69,-16.93,-17.41,0,*4A
1504246025.08,20674,23.31,74286.8,17.69,-16.17,-16.69,0,*4A
1504246026.28,20675,23.31,74284.0,17.69,-16.37,-16.97,0,*48
1504246027.51,20676,23.31,74282.5,17.73,-16.03,-16.55,0,*49
1504246028.76,20677,23.31,74284.0,17.69,-15.81,-16.31,0,*48
1504246029.98,20678,23.31,74286.8,17.69,-16.31,-16.93,0,*47
1504246031.24,20679,23.31,74286.3,17.73,-15.75,-16.31,0,*46
1504246032.5,20680,23.31,74280.8,17.73,-15.67,-16.23,0,*40
1504246033.73,20681,23.31,74286.0,17.73,-15.49,-16.03,0,*4F
1504246034.99,20682,23.31,74280.8,17.73,-15.43,-15.95,0,*4A
1504246036.23,20683,23.31,74286.5,17.75,-15.75,-16.17,0,*41
1504246037.46,20684,23.31,74282.0,17.75,-15.85,-16.37,0,*4B
1504246038.69,20685,23.31,74286.0,17.75,-15.71,-16.27,0,*40
1504246039.94,20686,23.31,74282.8,17.77,-15.71,-16.31,0,*46
1504246041.15,20687,23.31,74282.8,17.75,-15.99,-16.59,0,*4D
1504246042.41,20688,23.31,74286.0,17.77,-16.45,-17.11,0,*4F
1504246043.66,20689,23.31,74282.3,17.77,-16.31,-16.97,0,*42
1504246044.89,20690,23.31,74284.3,17.77,-15.95,-16.45,0,*48
1504246046.15,20691,23.31,74282.5,17.77,-16.55,-17.11,0,*46
1504246047.44,20692,23.31,74282.3,17.77,-16.09,-16.69,0,*42
1504246048.7,20693,23.31,74284.0,17.79,-16.13,-16.69,0,*46
1504246049.94,20694,23.31,74284.0,17.79,-16.23,-16.75,0,*4F
1504246051.22,20695,23.31,74282.5,17.81,-15.81,-16.27,0,*45
1504246052.45,20696,23.31,74280.8,17.79,-15.95,-16.31,0,*43
1504246053.65,20697,23.31,74282.5,17.79,-15.99,-16.59,0,*40
1504246054.86,20698,23.31,74282.5,17.79,-16.75,-17.31,0,*41
1504246056.09,20699,23.31,74286.5,17.79,-16.89,-17.45,0,*40
1504246057.33,20700,23.31,74284.3,17.79,-16.41,-17.03,0,*47
1504246058.58,20701,23.31,74280.3,17.77,-16.27,-16.89,0,*4B
1504246059.81,20702,23.31,74280.5,17.75,-16.59,-17.17,0,*45
1504246061.07,20703,23.31,74280.0,17.79,-16.69,-17.25,0,*4A
1504246062.33,20704,23.31,74282.5,17.79,-16.69,-17.25,0,*4D
1504246063.58,20705,23.31,74284.0,17.77,-16.23,-16.83,0,*41
1504246064.84,20706,23.31,74282.0,17.79,-15.85,-16.27,0,*4D
1504246066.08,20707,23.31,74284.0,17.79,-15.81,-16.59,0,*41
1504246067.31,20708,23.31,74280.8,17.81,-15.95,-16.41,0,*45
1504246068.54,20709,23.31,74286.5,17.79,-16.09,-16.45,0,*41
1504246069.75,20710,23.31,74286.5,17.79,-15.53,-15.95,0,*4B
1504246071.0,20711,23.25,74282.3,17.81,-16.03,-16.51,0,*40
1504246072.25,20712,23.31,74282.5,17.79,-16.69,-17.17,0,*4B
1504246073.49,20713,23.31,74282.8,17.79,-16.75,-17.41,0,*44
1504246074.74,20714,23.31,74286.0,17.81,-17.11,-17.73,0,*46
1504246075.97,20715,23.25,74280.3,17.81,-16.37,-16.93,0,*4D
1504246077.19,20716,23.31,74284.0,17.79,-16.31,-16.97,0,*4B
1504246078.42,20717,23.31,74284.8,17.81,-16.37,-16.97,0,*4B
1504246079.71,20718,23.31,74286.8,17.81,-16.65,-17.11,0,*4C
1504246080.94,20719,23.31,74284.8,17.79,-16.27,-16.75,0,*4F
1504246082.17,20720,23.31,74282.5,17.81,-16.37,-16.93,0,*4B
1504246083.4,20721,23.31,74284.0,17.79,-16.31,-16.97,0,*4F
1504246084.63,20722,23.25,74282.3,17.79,-15.67,-16.13,0,*40
1504246085.86,20723,23.31,74286.0,17.79,-15.95,-16.31,0,*4C
1504246087.13,20724,23.25,74280.0,17.81,-16.41,-17.07,0,*42
1504246088.41,20725,23.31,74286.0,17.81,-16.51,-17.11,0,*45
1504246089.64,20726,23.25,74280.5,17.79,-16.27,-16.75,0,*43
1504246090.9,20727,23.31,74290.0,17.81,-16.09,-16.83,0,*40
1504246092.14,20728,23.31,74286.8,17.81,-16.03,-16.55,0,*4E
1504246093.37,20729,23.31,74286.8,17.81,-15.95,-16.55,0,*43
1504246094.64,20730,23.31,74286.5,17.81,-15.81,-16.23,0,*4F
1504246095.87,20731,23.25,74282.0,17.83,-15.57,-16.03,0,*45
1504246097.13,20732,23.31,74286.5,17.85,-16.09,-16.59,0,*47